Regional Weather Roundup
Issued by NWS Kansas City/Pleasant Hill, MO

Home | Current Version | Previous Version | Graphics & Text | Print | Product List | Glossary Off
Versions: 1 2 3 4 5 6 7 8 9 10 11 12 13 14 15 16 17 18 19 20 21 22 23 24 25 26 27 28 29 30 31 32 33 34 35 36 37 38 39 40 41 42 43 44 45 46 47 48 49 50

000
ASUS43 KEAX 251711
RWREAX

WEATHER ROUNDUP FOR EASTERN KANSAS AND NORTHWEST MISSOURI
NATIONAL WEATHER SERVICE KANSAS CITY/PLEASANT HILL MO
1100 AM CST THU DEC 25 2014

KSZ040-057-103>105-MOZ028-029-037-043-251800-
...KANSAS CITY METROPOLITAN AREA...

CITY           SKY/WX    TMP DP  RH WIND       PRES   REMARKS
K.C. INTL      MOSUNNY   44  30  57 S21G32    29.78S
K.C. DOWNTOWN  SUNNY     46  30  53 S14G25    29.81F
LEES SUMMIT    SUNNY     44  29  55 S20G31    29.83R
OLATHE - IXD   SUNNY     44  31  60 S20G30    29.80S
OLATHE - OJC   SUNNY     44  30  57 S20G32    29.80F
LAWRENCE       SUNNY     45  29  53 S20G25    29.78F

$$

MOZ001>008-011>017-020>025-030>033-038>040-044>046-053-054-251800-
...NORTHERN AND CENTRAL MISSOURI...

CITY           SKY/WX    TMP DP  RH WIND       PRES   REMARKS
ST. JOSEPH     SUNNY     45  30  55 S17       29.77F
MOSBY          SUNNY     45  30  57 S17       29.84R
WARRENSBURG    SUNNY     45  30  57 S16G28    29.87S
WHITEMAN AFB   MOSUNNY   46  31  56 S22G29    29.88R
CLINTON        SUNNY     46  32  57 S16       29.91S
SEDALIA        MOSUNNY   46  30  53 S20G28    29.90F
WARSAW         NOT AVBL
MARSHALL       SUNNY     46  32  57 S17G25    29.90S
CHILLICOTHE      N/A     44  30  57 S16       29.85R
MOBERLY        SUNNY     43  30  61 S14G21    29.90F
KIRKSVILLE     MOSUNNY   43  31  62 S18G26    29.87F WCI  35

$$

MOZ041-047>049-056>058-063>065-088>090-097-251800-
...EASTERN AND SOUTHERN MISSOURI...

CITY           SKY/WX    TMP DP  RH WIND       PRES   REMARKS
ST. LOUIS INTL MOSUNNY   47  32  56 S8        30.04F
SPIRIT OF STL  SUNNY     45  32  60 S9        30.02F
COLUMBIA       SUNNY     43  33  68 S15       29.95F
JEFFERSON CITY SUNNY     44  31  60 S12       29.98F
MEXICO         SUNNY     43  37  81 S15       29.94F
HANNIBAL       SUNNY     45  30  57 S16       29.93F
ROLLA          SUNNY     43  31  62 S14       29.97F
LEBANON        SUNNY     46  30  53 S15       29.96F
OSAGE BEACH    MOSUNNY   45  30  57 S14       29.97S
SPRINGFIELD    SUNNY     44  31  60 S20       29.96S
BRANSON        MOSUNNY   48  27  43 S13G18    30.02S
NEVADA         SUNNY     46  32  57 S20G26    29.89F
JOPLIN         SUNNY     49  27  42 S25G32    29.89F
WEST PLAINS    SUNNY     43  31  62 S13       30.05S

$$

IAZ060-094-KSZ022-034>040-054-083-096-NEZ052-066-093-251800-
...KANSAS...SOUTHEAST NEBRASKA AND IOWA...

CITY           SKY/WX    TMP DP  RH WIND       PRES   REMARKS
TOPEKA         SUNNY     47  28  47 S17G26    29.75F
MANHATTAN      SUNNY     47  28  47 S21G30    29.64F
EMPORIA        SUNNY     44  29  55 S25G41    29.70F WCI  35
CHANUTE        SUNNY     47  30  51 S24G31    29.81F
WICHITA        MOSUNNY   47  27  45 S21G32    29.66F
OMAHA          MOSUNNY   38  29  70 S20       29.69F WCI  28
LINCOLN        SUNNY     42  29  59 S16       29.63F WCI  34
FALLS CITY     SUNNY     41  29  62 S17G24    29.71S WCI  32
LAMONI         PTSUNNY   40  30  67 S14       29.78S WCI  32
DES MOINES     PTSUNNY   41  30  65 S14       29.77S WCI  33

$$



USA.gov is the U.S. government's official web portal to all federal, state and local government web resources and services.